Home   Weather   Las Cruces   Past weeks
Flag for USA

Past Weather in Las Cruces, New Mexico, USA — Yesterday and Last 2 Weeks

Now
62 °F

Sunny.


Feels Like: 62 °F
Forecast: 73 / 42 °F
Wind: 6 mph from North

Location: Las Cruces International

Current Time: Oct 21, 2019 at 10:23:02 am

Latest Report: Oct 21, 2019 at 10:15 am


Visibility: 10 mi

Pressure: 30.16 "Hg (26.22 "Hg at 1187m altitude)

Humidity: 11%

Dew Point: 7 °F

Location of Las CrucesLocation

Past Weather in Las Cruces — Graph

°F

Las Cruces Temperature Yesterday

Maximum temperature yesterday: 79 °F (at 1:35 pm)
Minimum temperature yesterday: 46 °F (at 7:15 am)
Average temperature yesterday: 62 °F

High & Low Weather Summary for the Past Weeks

 TemperatureHumidityPressure
High85 °F (Oct 6, 4:15 pm)100% (Oct 9, 12:35 am)30.37 "Hg (Oct 9, 12:35 am)
Low38 °F (Oct 21, 7:35 am)9% (Oct 20, 1:35 pm)29.84 "Hg (Oct 18, 2:15 pm)
Average64 °F40%30.07 "Hg
* Reported Oct 6 9:15 am — Oct 21 9:15 am, Las Cruces. Weather by CustomWeather, © 2019

Note: Actual official high and low records may vary slightly from our data, if they occured in-between our weather recording intervals... More about our weather records

Advertising

Las Cruces Weather History for the Previous 24 Hours

Scroll right to see more
 ConditionsComfort  
Time TempWeatherWind HumidityBarometerVisibility
9:15 am
Mon, Oct 21
57 °FSunny.No wind14%30.16 "Hg10 mi
8:55 am54 °FSunny.3 mph15%30.14 "Hg10 mi
8:35 am50 °FSunny.No wind18%30.13 "Hg10 mi
8:15 am47 °FSunny.No wind19%30.12 "Hg10 mi
7:55 am41 °FSunny.No wind24%30.10 "Hg10 mi
7:35 am38 °FSunny.6 mph26%30.10 "Hg10 mi
7:15 am38 °FSunny.6 mph25%30.10 "Hg10 mi
6:55 am38 °FClear.5 mph29%30.08 "Hg10 mi
6:35 am40 °FClear.No wind28%30.08 "Hg10 mi
6:15 am42 °FClear.3 mph26%30.07 "Hg10 mi
5:55 am38 °FClear.No wind29%30.08 "Hg10 mi
5:35 am42 °FClear.No wind25%30.05 "Hg10 mi
5:15 am46 °FClear.No wind17%30.04 "Hg10 mi
4:55 am48 °FClear.No wind15%30.05 "Hg10 mi
4:35 am50 °FClear.6 mph14%30.04 "Hg10 mi
4:15 am49 °FClear.7 mph15%30.04 "Hg10 mi
3:35 am51 °FClear.8 mph14%30.03 "Hg10 mi
2:55 am52 °FClear.12 mph14%30.03 "Hg10 mi
2:35 am53 °FClear.13 mph14%30.04 "Hg10 mi
2:15 am53 °FClear.14 mph14%30.03 "Hg10 mi
1:55 am53 °FClear.17 mph15%30.03 "Hg10 mi
1:35 am53 °FClear.13 mph16%30.03 "Hg10 mi
1:15 am54 °FClear.13 mph17%30.02 "Hg10 mi
12:35 am53 °FClear.10 mph18%30.02 "Hg10 mi
12:15 am48 °FClear.9 mph22%30.01 "Hg10 mi
11:55 pm
Sun, Oct 20
52 °FClear.6 mph18%30.01 "Hg10 mi
11:35 pm53 °FClear.5 mph17%30.01 "Hg10 mi
11:15 pm57 °FClear.No wind14%30.00 "Hg10 mi
10:55 pm56 °FClear.6 mph18%29.99 "Hg10 mi
10:35 pm56 °FClear.No wind20%29.99 "Hg10 mi
10:15 pm55 °FClear.6 mph21%29.99 "Hg10 mi
9:55 pm59 °FClear.7 mph18%29.98 "Hg10 mi
9:35 pm58 °FClear.3 mph18%29.97 "Hg10 mi
8:55 pm63 °FClear.7 mph15%29.96 "Hg10 mi
8:35 pm66 °FClear.9 mph13%29.95 "Hg10 mi
8:15 pm66 °FClear.15 mph13%29.94 "Hg10 mi
7:55 pm66 °FClear.7 mph14%29.94 "Hg10 mi
7:35 pm67 °FClear.12 mph13%29.91 "Hg10 mi
7:15 pm68 °FClear.15 mph13%29.90 "Hg10 mi
6:55 pm69 °FClear.15 mph13%29.90 "Hg10 mi
6:15 pm72 °FSunny.22 mph11%29.87 "Hg10 mi
5:55 pm73 °FSunny.25 mph11%29.87 "Hg10 mi
5:35 pm75 °FSunny.28 mph11%29.86 "Hg10 mi
5:15 pm75 °FSunny.26 mph10%29.86 "Hg10 mi
4:55 pm76 °FSunny.30 mph10%29.86 "Hg10 mi
4:35 pm76 °FSunny.25 mph10%29.86 "Hg10 mi
4:15 pm77 °FSunny.29 mph10%29.87 "Hg10 mi
3:55 pm77 °FSunny.24 mph10%29.86 "Hg10 mi
3:35 pm78 °FSunny.29 mph10%29.86 "Hg10 mi
2:55 pm78 °FSunny.30 mph10%29.86 "Hg10 mi
2:35 pm78 °FSunny.28 mph9%29.87 "Hg10 mi
2:15 pm78 °FSunny.24 mph9%29.87 "Hg10 mi
1:55 pm78 °FSunny.23 mph9%29.88 "Hg10 mi
1:35 pm79 °FSunny.21 mph9%29.89 "Hg10 mi
1:15 pm77 °FSunny.28 mph10%29.90 "Hg10 mi
12:55 pm76 °FSunny.17 mph11%29.91 "Hg10 mi
12:35 pm74 °FSunny.17 mph13%29.93 "Hg10 mi
12:15 pm74 °FSunny.20 mph13%29.94 "Hg10 mi
11:55 am73 °FSunny.14 mph13%29.94 "Hg10 mi
11:35 am72 °FSunny.18 mph13%29.94 "Hg10 mi
11:15 am71 °FSunny.20 mph15%29.94 "Hg10 mi
10:55 am69 °FSunny.15 mph16%29.95 "Hg10 mi
10:35 am69 °FSunny.15 mph17%29.95 "Hg10 mi
10:15 am67 °FSunny.14 mph19%29.96 "Hg10 mi
Weather by CustomWeather, © 2019

See weather overview